Time,TemperatureF,DewpointF,PressureIn,WindDirection,WindDirectionDegrees,WindSpeedMPH,WindSpeedGustMPH,Humidity,HourlyPrecipIn,Conditions,Clouds,dailyrainin,SoftwareType,DateUTC
2013-01-18 00:01:00,37.6,36.0,30.11,NNW,344,0.0,1.0,94,0.01,,,1.01,WUHU216DAVISVP2,2013-01-18 05:01:00,
2013-01-18 00:03:00,37.6,36.0,30.11,NNW,344,0.0,0.0,94,0.01,,,0.00,WUHU216DAVISVP2,2013-01-18 05:03:00,
2013-01-18 00:08:00,38.0,36.4,30.11,NNW,344,0.0,0.0,94,0.01,,,0.00,WUHU216DAVISVP2,2013-01-18 05:08:00,
2013-01-18 00:13:00,37.6,36.0,30.11,NNW,344,0.0,0.0,94,0.01,,,0.00,WUHU216DAVISVP2,2013-01-18 05:13:00,
2013-01-18 00:18:00,37.6,36.0,30.13,NNW,344,0.0,0.0,94,0.00,,,0.00,WUHU216DAVISVP2,2013-01-18 05:18:00,
2013-01-18 00:23:00,38.0,36.4,30.13,NNW,347,0.0,1.0,94,0.00,,,0.00,WUHU216DAVISVP2,2013-01-18 05:23:00,
2013-01-18 00:28:00,37.8,36.2,30.13,NNW,344,0.0,1.0,94,0.00,,,0.00,WUHU216DAVISVP2,2013-01-18 05:28:00,
2013-01-18 00:33:00,37.8,36.2,30.14,NNW,346,0.0,0.0,94,0.00,,,0.00,WUHU216DAVISVP2,2013-01-18 05:33:00,
2013-01-18 00:38:00,37.8,36.2,30.14,NNW,346,0.0,0.0,94,0.00,,,0.00,WUHU216DAVISVP2,2013-01-18 05:38:00,
2013-01-18 00:43:00,37.8,36.2,30.14,NNW,346,0.0,0.0,94,0.00,,,0.00,WUHU216DAVISVP2,2013-01-18 05:43:00,
2013-01-18 00:48:00,37.8,36.2,30.14,NNW,346,0.0,0.0,94,0.01,,,0.01,WUHU216DAVISVP2,2013-01-18 05:48:00,
2013-01-18 00:53:00,37.8,36.2,30.14,NNW,346,0.0,0.0,94,0.01,,,0.01,WUHU216DAVISVP2,2013-01-18 05:53:00,
2013-01-18 00:58:00,38.2,36.6,30.14,NNW,347,0.0,0.0,94,0.01,,,0.01,WUHU216DAVISVP2,2013-01-18 05:58:00,
2013-01-18 01:03:00,37.8,36.2,30.12,NNW,347,0.0,0.0,94,0.01,,,0.01,WUHU216DAVISVP2,2013-01-18 06:03:00,
2013-01-18 01:08:00,37.9,36.3,30.12,NNW,347,0.0,0.0,94,0.01,,,0.01,WUHU216DAVISVP2,2013-01-18 06:08:00,
2013-01-18 01:13:00,37.9,36.3,30.12,NNW,347,0.0,0.0,94,0.01,,,0.01,WUHU216DAVISVP2,2013-01-18 06:13:00,
2013-01-18 01:18:00,38.5,36.9,30.14,NNW,332,1.0,2.0,94,0.01,,,0.01,WUHU216DAVISVP2,2013-01-18 06:18:00,
2013-01-18 01:23:00,38.5,36.9,30.14,NNW,333,1.0,6.0,94,0.01,,,0.01,WUHU216DAVISVP2,2013-01-18 06:23:00,
2013-01-18 01:28:00,38.0,36.4,30.14,North,354,0.0,6.0,94,0.01,,,0.01,WUHU216DAVISVP2,2013-01-18 06:28:00,
2013-01-18 01:33:00,37.9,36.3,30.14,North,354,0.0,2.0,94,0.01,,,0.01,WUHU216DAVISVP2,2013-01-18 06:33:00,
2013-01-18 01:38:00,38.0,36.4,30.14,NW,304,2.0,2.0,94,0.01,,,0.01,WUHU216DAVISVP2,2013-01-18 06:38:00,
2013-01-18 01:43:00,38.2,36.6,30.14,NNW,340,0.0,4.0,94,0.01,,,0.01,WUHU216DAVISVP2,2013-01-18 06:43:00,
2013-01-18 01:48:00,38.2,36.6,30.16,North,350,1.0,6.0,94,0.00,,,0.01,WUHU216DAVISVP2,2013-01-18 06:48:00,
2013-01-18 01:53:00,38.6,37.0,30.16,NW,320,0.0,6.0,94,0.00,,,0.01,WUHU216DAVISVP2,2013-01-18 06:53:00,
2013-01-18 01:58:00,38.0,36.4,30.16,NW,320,0.0,2.0,94,0.00,,,0.01,WUHU216DAVISVP2,2013-01-18 06:58:00,
2013-01-18 02:03:00,38.2,36.6,30.18,North,349,2.0,7.0,94,0.00,,,0.01,WUHU216DAVISVP2,2013-01-18 07:03:00,
2013-01-18 02:08:00,38.2,36.6,30.18,NNW,335,0.0,7.0,94,0.00,,,0.01,WUHU216DAVISVP2,2013-01-18 07:08:00,
2013-01-18 02:13:00,38.2,36.6,30.18,North,359,0.0,1.0,94,0.00,,,0.01,WUHU216DAVISVP2,2013-01-18 07:13:00,
2013-01-18 02:18:00,38.8,37.2,30.19,North,354,0.0,1.0,94,0.00,,,0.01,WUHU216DAVISVP2,2013-01-18 07:18:00,
2013-01-18 02:23:00,38.5,36.9,30.19,NNW,335,1.0,8.0,94,0.00,,,0.01,WUHU216DAVISVP2,2013-01-18 07:23:00,
2013-01-18 02:28:00,38.5,36.9,30.19,NNW,339,0.0,8.0,94,0.00,,,0.01,WUHU216DAVISVP2,2013-01-18 07:28:00,
2013-01-18 02:33:00,38.5,36.9,30.16,NNW,339,1.0,2.0,94,0.00,,,0.01,WUHU216DAVISVP2,2013-01-18 07:33:00,
2013-01-18 02:38:00,38.5,36.9,30.16,NNW,342,0.0,4.0,94,0.00,,,0.01,WUHU216DAVISVP2,2013-01-18 07:38:00,
2013-01-18 02:43:00,38.3,36.7,30.16,WNW,298,2.0,4.0,94,0.00,,,0.01,WUHU216DAVISVP2,2013-01-18 07:43:00,
2013-01-18 02:48:00,38.5,36.9,30.18,WNW,284,0.0,6.0,94,0.00,,,0.01,WUHU216DAVISVP2,2013-01-18 07:48:00,
2013-01-18 02:53:00,38.3,36.7,30.18,WNW,284,0.0,6.0,94,0.01,,,0.02,WUHU216DAVISVP2,2013-01-18 07:53:00,
2013-01-18 02:58:00,38.5,36.9,30.18,WNW,284,0.0,1.0,94,0.01,,,0.02,WUHU216DAVISVP2,2013-01-18 07:58:00,
2013-01-18 03:03:00,38.5,36.9,30.19,WNW,284,0.0,1.0,94,0.01,,,0.02,WUHU216DAVISVP2,2013-01-18 08:03:00,
2013-01-18 03:08:00,38.3,36.7,30.19,WNW,284,0.0,1.0,94,0.01,,,0.02,WUHU216DAVISVP2,2013-01-18 08:08:00,
2013-01-18 03:13:00,38.5,36.9,30.19,WNW,284,0.0,1.0,94,0.01,,,0.02,WUHU216DAVISVP2,2013-01-18 08:13:00,
2013-01-18 03:18:00,38.9,37.3,30.20,WNW,284,0.0,0.0,94,0.01,,,0.02,WUHU216DAVISVP2,2013-01-18 08:18:00,
2013-01-18 03:23:00,38.2,36.6,30.20,WNW,284,0.0,0.0,94,0.01,,,0.02,WUHU216DAVISVP2,2013-01-18 08:23:00,
2013-01-18 03:28:00,38.2,36.6,30.20,WNW,284,0.0,0.0,94,0.01,,,0.02,WUHU216DAVISVP2,2013-01-18 08:28:00,
2013-01-18 03:33:00,38.0,36.4,30.20,WNW,284,0.0,0.0,94,0.01,,,0.02,WUHU216DAVISVP2,2013-01-18 08:33:00,
2013-01-18 03:38:00,38.0,36.4,30.20,WNW,284,0.0,0.0,94,0.01,,,0.02,WUHU216DAVISVP2,2013-01-18 08:38:00,
2013-01-18 03:43:00,38.3,36.7,30.20,WNW,284,0.0,0.0,94,0.01,,,0.02,WUHU216DAVISVP2,2013-01-18 08:43:00,
2013-01-18 03:48:00,37.8,36.2,30.20,WNW,284,0.0,0.0,94,0.01,,,0.02,WUHU216DAVISVP2,2013-01-18 08:48:00,
2013-01-18 03:53:00,37.6,36.0,30.20,WNW,284,0.0,0.0,94,0.00,,,0.02,WUHU216DAVISVP2,2013-01-18 08:53:00,
2013-01-18 03:58:00,37.6,36.0,30.20,WNW,284,0.0,0.0,94,0.00,,,0.02,WUHU216DAVISVP2,2013-01-18 08:58:00,
2013-01-18 04:03:00,37.6,36.0,30.21,WNW,284,0.0,0.0,94,0.00,,,0.02,WUHU216DAVISVP2,2013-01-18 09:03:00,
2013-01-18 04:08:00,37.6,36.0,30.21,NW,304,1.0,4.0,94,0.00,,,0.02,WUHU216DAVISVP2,2013-01-18 09:08:00,
2013-01-18 04:13:00,37.8,36.2,30.21,NW,313,0.0,4.0,94,0.00,,,0.02,WUHU216DAVISVP2,2013-01-18 09:13:00,
2013-01-18 04:18:00,37.8,36.2,30.22,NNW,333,2.0,4.0,94,0.00,,,0.02,WUHU216DAVISVP2,2013-01-18 09:18:00,
2013-01-18 04:23:00,38.3,36.7,30.22,NW,309,0.0,4.0,94,0.00,,,0.02,WUHU216DAVISVP2,2013-01-18 09:23:00,
2013-01-18 04:28:00,38.3,36.7,30.22,NNW,339,0.0,4.0,94,0.00,,,0.02,WUHU216DAVISVP2,2013-01-18 09:28:00,
2013-01-18 04:33:00,38.5,36.9,30.22,NNW,337,0.0,4.0,94,0.00,,,0.02,WUHU216DAVISVP2,2013-01-18 09:33:00,
2013-01-18 04:38:00,38.5,36.9,30.22,NNW,337,0.0,4.0,94,0.00,,,0.02,WUHU216DAVISVP2,2013-01-18 09:38:00,
2013-01-18 04:43:00,37.9,36.3,30.22,NNW,337,0.0,6.0,94,0.00,,,0.02,WUHU216DAVISVP2,2013-01-18 09:43:00,
2013-01-18 04:48:00,37.9,36.3,30.23,NNW,337,0.0,6.0,94,0.00,,,0.02,WUHU216DAVISVP2,2013-01-18 09:48:00,
2013-01-18 04:53:00,37.8,36.2,30.23,WNW,285,0.0,2.0,94,0.00,,,0.02,WUHU216DAVISVP2,2013-01-18 09:53:00,
2013-01-18 04:58:00,37.9,36.3,30.23,WNW,285,0.0,1.0,94,0.00,,,0.02,WUHU216DAVISVP2,2013-01-18 09:58:00,
2013-01-18 05:03:00,37.8,36.2,30.24,WNW,285,0.0,1.0,94,0.00,,,0.02,WUHU216DAVISVP2,2013-01-18 10:03:00,
2013-01-18 05:08:00,37.8,36.2,30.24,WNW,285,0.0,0.0,94,0.00,,,0.02,WUHU216DAVISVP2,2013-01-18 10:08:00,
2013-01-18 05:13:00,37.5,35.9,30.24,WNW,285,0.0,0.0,94,0.00,,,0.02,WUHU216DAVISVP2,2013-01-18 10:13:00,
2013-01-18 05:18:00,37.6,36.0,30.24,WNW,285,0.0,0.0,94,0.00,,,0.02,WUHU216DAVISVP2,2013-01-18 10:18:00,
2013-01-18 05:23:00,38.0,36.4,30.24,WNW,285,0.0,0.0,94,0.00,,,0.02,WUHU216DAVISVP2,2013-01-18 10:23:00,
2013-01-18 05:28:00,37.5,35.9,30.24,WNW,285,0.0,0.0,94,0.00,,,0.02,WUHU216DAVISVP2,2013-01-18 10:28:00,
2013-01-18 05:33:00,37.5,35.9,30.25,WNW,285,0.0,0.0,94,0.00,,,0.02,WUHU216DAVISVP2,2013-01-18 10:33:00,
2013-01-18 05:38:00,37.5,35.9,30.25,WNW,285,0.0,0.0,94,0.00,,,0.02,WUHU216DAVISVP2,2013-01-18 10:38:00,
2013-01-18 05:43:00,37.3,35.7,30.25,WNW,285,0.0,0.0,94,0.00,,,0.02,WUHU216DAVISVP2,2013-01-18 10:43:00,
2013-01-18 05:48:00,37.8,36.2,30.26,WNW,285,0.0,0.0,94,0.00,,,0.02,WUHU216DAVISVP2,2013-01-18 10:48:00,
2013-01-18 05:53:00,37.2,35.6,30.26,WNW,285,0.0,0.0,94,0.00,,,0.02,WUHU216DAVISVP2,2013-01-18 10:53:00,
2013-01-18 05:58:00,37.0,35.4,30.26,WNW,285,0.0,0.0,94,0.00,,,0.02,WUHU216DAVISVP2,2013-01-18 10:58:00,
2013-01-18 06:03:00,37.0,35.4,30.26,WNW,285,0.0,0.0,94,0.00,,,0.02,WUHU216DAVISVP2,2013-01-18 11:03:00,
2013-01-18 06:08:00,37.6,36.0,30.26,WNW,285,0.0,0.0,94,0.00,,,0.02,WUHU216DAVISVP2,2013-01-18 11:08:00,
2013-01-18 06:13:00,37.0,35.4,30.26,WNW,285,0.0,0.0,94,0.00,,,0.02,WUHU216DAVISVP2,2013-01-18 11:13:00,
2013-01-18 06:18:00,36.9,35.3,30.27,WNW,285,0.0,0.0,94,0.00,,,0.02,WUHU216DAVISVP2,2013-01-18 11:18:00,
2013-01-18 06:23:00,37.3,35.7,30.27,WNW,285,0.0,0.0,94,0.00,,,0.02,WUHU216DAVISVP2,2013-01-18 11:23:00,
2013-01-18 06:28:00,36.6,35.0,30.27,WNW,285,0.0,0.0,94,0.00,,,0.02,WUHU216DAVISVP2,2013-01-18 11:28:00,
2013-01-18 06:33:00,36.6,35.0,30.28,WNW,285,0.0,0.0,94,0.00,,,0.02,WUHU216DAVISVP2,2013-01-18 11:33:00,
2013-01-18 06:38:00,36.5,34.9,30.28,WNW,285,0.0,0.0,94,0.00,,,0.02,WUHU216DAVISVP2,2013-01-18 11:38:00,
2013-01-18 06:43:00,37.0,35.4,30.28,WNW,296,2.0,2.0,94,0.00,,,0.02,WUHU216DAVISVP2,2013-01-18 11:43:00,
2013-01-18 06:48:00,36.6,35.0,30.29,NNW,340,0.0,6.0,94,0.00,,,0.02,WUHU216DAVISVP2,2013-01-18 11:48:00,
2013-01-18 06:53:00,36.8,35.2,30.29,NW,325,0.0,6.0,94,0.00,,,0.02,WUHU216DAVISVP2,2013-01-18 11:53:00,
2013-01-18 06:58:00,36.9,35.3,30.29,NNW,328,0.0,4.0,94,0.00,,,0.02,WUHU216DAVISVP2,2013-01-18 11:58:00,
2013-01-18 07:03:00,36.9,35.3,30.30,NW,304,0.0,2.0,94,0.00,,,0.02,WUHU216DAVISVP2,2013-01-18 12:03:00,
2013-01-18 07:08:00,36.9,35.3,30.30,NNW,336,2.0,7.0,94,0.00,,,0.02,WUHU216DAVISVP2,2013-01-18 12:08:00,
2013-01-18 07:13:00,37.0,35.4,30.30,NW,326,6.0,7.0,94,0.00,,,0.02,WUHU216DAVISVP2,2013-01-18 12:13:00,
2013-01-18 07:18:00,37.0,35.4,30.31,NNW,328,1.0,7.0,94,0.00,,,0.02,WUHU216DAVISVP2,2013-01-18 12:18:00,
2013-01-18 07:23:00,37.2,35.6,30.31,NW,320,2.0,9.0,94,0.00,,,0.02,WUHU216DAVISVP2,2013-01-18 12:23:00,
2013-01-18 07:28:00,37.3,35.7,30.31,NNW,328,2.0,10.0,94,0.00,,,0.02,WUHU216DAVISVP2,2013-01-18 12:28:00,
2013-01-18 07:33:00,37.3,35.7,30.32,NNW,342,2.0,10.0,94,0.00,,,0.02,WUHU216DAVISVP2,2013-01-18 12:33:00,
2013-01-18 07:38:00,37.2,35.6,30.32,NW,311,0.0,8.0,94,0.00,,,0.02,WUHU216DAVISVP2,2013-01-18 12:38:00,
2013-01-18 07:43:00,37.0,35.4,30.32,NNW,328,1.0,6.0,94,0.00,,,0.02,WUHU216DAVISVP2,2013-01-18 12:43:00,
2013-01-18 07:48:00,37.0,35.4,30.34,NNW,335,2.0,7.0,94,0.00,,,0.02,WUHU216DAVISVP2,2013-01-18 12:48:00,
2013-01-18 07:53:00,37.0,35.4,30.34,WSW,254,4.0,7.0,94,0.00,,,0.02,WUHU216DAVISVP2,2013-01-18 12:53:00,
2013-01-18 07:58:00,36.9,35.3,30.34,NW,319,0.0,6.0,94,0.00,,,0.02,WUHU216DAVISVP2,2013-01-18 12:58:00,
2013-01-18 08:03:00,36.8,35.2,30.35,NNW,328,1.0,6.0,94,0.00,,,0.02,WUHU216DAVISVP2,2013-01-18 13:03:00,
2013-01-18 08:08:00,36.6,34.7,30.35,WNW,298,1.0,6.0,93,0.00,,,0.02,WUHU216DAVISVP2,2013-01-18 13:08:00,
2013-01-18 08:13:00,36.9,35.3,30.35,NW,320,0.0,4.0,94,0.00,,,0.02,WUHU216DAVISVP2,2013-01-18 13:13:00,
2013-01-18 08:18:00,36.2,34.3,30.37,NNW,337,0.0,6.0,93,0.00,,,0.02,WUHU216DAVISVP2,2013-01-18 13:18:00,
2013-01-18 08:23:00,36.2,34.3,30.37,NNW,335,1.0,6.0,93,0.00,,,0.02,WUHU216DAVISVP2,2013-01-18 13:23:00,
2013-01-18 08:28:00,36.2,34.3,30.37,NNW,328,0.0,4.0,93,0.00,,,0.02,WUHU216DAVISVP2,2013-01-18 13:28:00,
2013-01-18 08:33:00,36.0,34.1,30.37,NNW,328,1.0,4.0,93,0.00,,,0.02,WUHU216DAVISVP2,2013-01-18 13:33:00,
2013-01-18 08:38:00,35.9,34.0,30.37,NNW,328,0.0,4.0,93,0.00,,,0.02,WUHU216DAVISVP2,2013-01-18 13:38:00,
2013-01-18 08:43:00,35.9,34.0,30.37,NNW,336,0.0,2.0,93,0.00,,,0.02,WUHU216DAVISVP2,2013-01-18 13:43:00,
2013-01-18 08:48:00,36.2,34.3,30.39,NNW,333,2.0,2.0,93,0.00,,,0.02,WUHU216DAVISVP2,2013-01-18 13:48:00,
2013-01-18 08:53:00,35.9,34.0,30.39,NNW,329,0.0,4.0,93,0.00,,,0.02,WUHU216DAVISVP2,2013-01-18 13:53:00,
2013-01-18 08:58:00,35.9,34.0,30.39,NNW,329,0.0,4.0,93,0.00,,,0.02,WUHU216DAVISVP2,2013-01-18 13:58:00,
2013-01-18 09:03:00,35.9,34.0,30.40,NNW,329,0.0,2.0,93,0.00,,,0.02,WUHU216DAVISVP2,2013-01-18 14:03:00,
2013-01-18 09:08:00,35.9,34.0,30.40,NW,320,2.0,2.0,93,0.00,,,0.02,WUHU216DAVISVP2,2013-01-18 14:08:00,
2013-01-18 09:13:00,35.9,34.0,30.40,NW,320,0.0,2.0,93,0.00,,,0.02,WUHU216DAVISVP2,2013-01-18 14:13:00,
2013-01-18 09:18:00,35.9,34.0,30.41,NW,320,0.0,2.0,93,0.00,,,0.02,WUHU216DAVISVP2,2013-01-18 14:18:00,
2013-01-18 09:23:00,36.2,34.3,30.41,NW,320,1.0,2.0,93,0.00,,,0.02,WUHU216DAVISVP2,2013-01-18 14:23:00,
2013-01-18 09:28:00,36.2,34.3,30.41,NW,320,0.0,2.0,93,0.00,,,0.02,WUHU216DAVISVP2,2013-01-18 14:28:00,
2013-01-18 09:33:00,36.5,34.6,30.42,NW,320,0.0,2.0,93,0.00,,,0.02,WUHU216DAVISVP2,2013-01-18 14:33:00,
2013-01-18 09:38:00,36.5,34.6,30.42,NNW,328,0.0,2.0,93,0.00,,,0.02,WUHU216DAVISVP2,2013-01-18 14:38:00,
2013-01-18 09:43:00,36.6,34.7,30.42,NNW,328,0.0,2.0,93,0.00,,,0.02,WUHU216DAVISVP2,2013-01-18 14:43:00,
2013-01-18 09:48:00,37.0,35.1,30.43,NNW,328,0.0,1.0,93,0.00,,,0.02,WUHU216DAVISVP2,2013-01-18 14:48:00,
2013-01-18 09:53:00,37.2,35.3,30.43,NNW,328,0.0,4.0,93,0.00,,,0.02,WUHU216DAVISVP2,2013-01-18 14:53:00,
2013-01-18 09:58:00,37.0,35.1,30.43,NNW,342,0.0,4.0,93,0.01,,,0.03,WUHU216DAVISVP2,2013-01-18 14:58:00,
2013-01-18 10:03:00,36.9,35.0,30.45,NW,315,0.0,6.0,93,0.01,,,0.03,WUHU216DAVISVP2,2013-01-18 15:03:00,
2013-01-18 10:08:00,36.9,35.0,30.45,SW,230,2.0,8.0,93,0.01,,,0.03,WUHU216DAVISVP2,2013-01-18 15:08:00,
2013-01-18 10:13:00,37.0,35.1,30.45,NNW,339,2.0,8.0,93,0.01,,,0.03,WUHU216DAVISVP2,2013-01-18 15:13:00,
2013-01-18 10:18:00,37.0,35.1,30.45,West,270,0.0,6.0,93,0.01,,,0.03,WUHU216DAVISVP2,2013-01-18 15:18:00,
2013-01-18 10:23:00,37.0,34.8,30.45,West,280,2.0,7.0,92,0.01,,,0.03,WUHU216DAVISVP2,2013-01-18 15:23:00,
2013-01-18 10:28:00,37.0,34.8,30.45,WSW,240,6.0,7.0,92,0.02,,,0.04,WUHU216DAVISVP2,2013-01-18 15:28:00,
2013-01-18 10:33:00,37.0,34.8,30.45,NNW,335,0.0,7.0,92,0.02,,,0.04,WUHU216DAVISVP2,2013-01-18 15:33:00,
2013-01-18 10:38:00,37.2,35.0,30.45,NW,315,2.0,7.0,92,0.03,,,0.05,WUHU216DAVISVP2,2013-01-18 15:38:00,
2013-01-18 10:43:00,37.2,34.8,30.45,WNW,302,2.0,8.0,91,0.03,,,0.05,WUHU216DAVISVP2,2013-01-18 15:43:00,
2013-01-18 10:48:00,37.3,34.9,30.45,NW,322,4.0,8.0,91,0.03,,,0.05,WUHU216DAVISVP2,2013-01-18 15:48:00,
2013-01-18 10:53:00,37.5,35.1,30.45,NNW,340,0.0,7.0,91,0.04,,,0.06,WUHU216DAVISVP2,2013-01-18 15:53:00,
2013-01-18 10:58:00,37.6,35.2,30.45,North,357,2.0,7.0,91,0.04,,,0.07,WUHU216DAVISVP2,2013-01-18 15:58:00,
2013-01-18 11:03:00,37.6,34.9,30.45,North,11,1.0,7.0,90,0.05,,,0.08,WUHU216DAVISVP2,2013-01-18 16:03:00,
2013-01-18 11:08:00,37.8,35.1,30.45,NW,315,0.0,6.0,90,0.06,,,0.09,WUHU216DAVISVP2,2013-01-18 16:08:00,
2013-01-18 11:13:00,37.9,35.2,30.45,North,352,0.0,7.0,90,0.06,,,0.09,WUHU216DAVISVP2,2013-01-18 16:13:00,
2013-01-18 11:18:00,38.0,35.3,30.45,North,0,2.0,7.0,90,0.08,,,0.11,WUHU216DAVISVP2,2013-01-18 16:18:00,
2013-01-18 11:23:00,38.3,35.6,30.45,NNE,30,4.0,7.0,90,0.09,,,0.12,WUHU216DAVISVP2,2013-01-18 16:23:00,
2013-01-18 11:28:00,38.3,35.6,30.45,West,278,0.0,7.0,90,0.08,,,0.12,WUHU216DAVISVP2,2013-01-18 16:28:00,
2013-01-18 11:33:00,38.5,35.8,30.45,North,359,0.0,7.0,90,0.09,,,0.13,WUHU216DAVISVP2,2013-01-18 16:33:00,
2013-01-18 11:38:00,38.5,35.5,30.45,NNW,340,0.0,7.0,89,0.09,,,0.14,WUHU216DAVISVP2,2013-01-18 16:38:00,
2013-01-18 11:43:00,38.5,35.2,30.45,NNW,330,4.0,7.0,88,0.09,,,0.14,WUHU216DAVISVP2,2013-01-18 16:43:00,
2013-01-18 11:48:00,38.5,35.2,30.44,NNW,343,1.0,7.0,88,0.10,,,0.15,WUHU216DAVISVP2,2013-01-18 16:48:00,
2013-01-18 11:53:00,38.9,35.6,30.44,NNE,16,4.0,7.0,88,0.10,,,0.16,WUHU216DAVISVP2,2013-01-18 16:53:00,
2013-01-18 11:58:00,39.1,35.8,30.44,North,354,4.0,7.0,88,0.10,,,0.17,WUHU216DAVISVP2,2013-01-18 16:58:00,
2013-01-18 12:03:00,39.3,35.7,30.44,NW,325,0.0,7.0,87,0.11,,,0.19,WUHU216DAVISVP2,2013-01-18 17:03:00,
2013-01-18 12:08:00,39.6,36.0,30.44,North,349,2.0,7.0,87,0.10,,,0.19,WUHU216DAVISVP2,2013-01-18 17:08:00,
2013-01-18 12:13:00,39.8,35.9,30.44,NW,322,2.0,7.0,86,0.11,,,0.20,WUHU216DAVISVP2,2013-01-18 17:13:00,
2013-01-18 12:18:00,40.1,36.2,30.44,NW,316,2.0,7.0,86,0.10,,,0.21,WUHU216DAVISVP2,2013-01-18 17:18:00,
2013-01-18 12:23:00,40.2,36.3,30.44,NNW,337,1.0,7.0,86,0.10,,,0.22,WUHU216DAVISVP2,2013-01-18 17:23:00,
2013-01-18 12:28:00,40.3,36.1,30.44,NNW,330,1.0,7.0,85,0.10,,,0.23,WUHU216DAVISVP2,2013-01-18 17:28:00,
2013-01-18 12:33:00,40.6,36.7,30.44,NNE,20,4.0,6.0,86,0.11,,,0.24,WUHU216DAVISVP2,2013-01-18 17:33:00,
2013-01-18 12:38:00,40.8,36.6,30.44,ENE,58,0.0,8.0,85,0.11,,,0.25,WUHU216DAVISVP2,2013-01-18 17:38:00,
2013-01-18 12:43:00,41.1,36.6,30.44,NNW,328,2.0,8.0,84,0.12,,,0.26,WUHU216DAVISVP2,2013-01-18 17:43:00,
2013-01-18 12:48:00,41.2,37.0,30.43,NNW,344,0.0,7.0,85,0.12,,,0.27,WUHU216DAVISVP2,2013-01-18 17:48:00,
2013-01-18 12:53:00,41.5,37.0,30.43,NNW,344,2.0,7.0,84,0.11,,,0.27,WUHU216DAVISVP2,2013-01-18 17:53:00,
2013-01-18 12:58:00,41.6,36.8,30.43,North,356,1.0,7.0,83,0.11,,,0.28,WUHU216DAVISVP2,2013-01-18 17:58:00,
2013-01-18 13:03:00,41.9,37.4,30.43,North,349,1.0,6.0,84,0.10,,,0.29,WUHU216DAVISVP2,2013-01-18 18:03:00,
2013-01-18 13:08:00,42.2,37.7,30.43,North,353,1.0,7.0,84,0.11,,,0.30,WUHU216DAVISVP2,2013-01-18 18:08:00,
2013-01-18 13:13:00,42.1,36.7,30.43,NNW,332,7.0,9.0,81,0.10,,,0.30,WUHU216DAVISVP2,2013-01-18 18:13:00,
2013-01-18 13:18:00,42.1,37.0,30.43,North,4,4.0,9.0,82,0.10,,,0.31,WUHU216DAVISVP2,2013-01-18 18:18:00,
2013-01-18 13:23:00,42.3,37.5,30.43,NE,38,1.0,8.0,83,0.09,,,0.31,WUHU216DAVISVP2,2013-01-18 18:23:00,
2013-01-18 13:28:00,42.2,36.5,30.43,NW,316,2.0,8.0,80,0.09,,,0.32,WUHU216DAVISVP2,2013-01-18 18:28:00,
2013-01-18 13:33:00,42.2,36.5,30.43,NNW,344,1.0,9.0,80,0.08,,,0.32,WUHU216DAVISVP2,2013-01-18 18:33:00,
2013-01-18 13:38:00,42.3,36.0,30.43,East,97,1.0,9.0,78,0.08,,,0.33,WUHU216DAVISVP2,2013-01-18 18:38:00,
2013-01-18 13:43:00,42.2,36.5,30.43,WNW,294,1.0,4.0,80,0.07,,,0.33,WUHU216DAVISVP2,2013-01-18 18:43:00,
2013-01-18 13:48:00,42.2,35.9,30.44,North,354,8.0,8.0,78,0.06,,,0.33,WUHU216DAVISVP2,2013-01-18 18:48:00,
2013-01-18 13:53:00,42.5,36.5,30.44,North,0,2.0,8.0,79,0.07,,,0.34,WUHU216DAVISVP2,2013-01-18 18:53:00,
2013-01-18 13:58:00,42.6,36.9,30.44,North,356,0.0,8.0,80,0.06,,,0.34,WUHU216DAVISVP2,2013-01-18 18:58:00,
2013-01-18 14:03:00,43.1,37.1,30.44,NNW,343,1.0,4.0,79,0.06,,,0.35,WUHU216DAVISVP2,2013-01-18 19:03:00,
2013-01-18 14:08:00,43.2,36.5,30.44,WNW,301,4.0,7.0,77,0.05,,,0.35,WUHU216DAVISVP2,2013-01-18 19:08:00,
2013-01-18 14:13:00,43.2,36.5,30.44,WNW,289,0.0,7.0,77,0.05,,,0.35,WUHU216DAVISVP2,2013-01-18 19:13:00,
2013-01-18 14:18:00,43.2,36.5,30.44,North,352,1.0,6.0,77,0.04,,,0.35,WUHU216DAVISVP2,2013-01-18 19:18:00,
2013-01-18 14:23:00,43.2,36.5,30.44,North,0,2.0,6.0,77,0.04,,,0.35,WUHU216DAVISVP2,2013-01-18 19:23:00,
2013-01-18 14:28:00,43.3,36.6,30.44,North,353,1.0,6.0,77,0.03,,,0.35,WUHU216DAVISVP2,2013-01-18 19:28:00,
2013-01-18 14:33:00,43.2,35.9,30.44,North,0,1.0,6.0,75,0.04,,,0.36,WUHU216DAVISVP2,2013-01-18 19:33:00,
2013-01-18 14:38:00,43.1,35.8,30.44,North,350,0.0,4.0,75,0.03,,,0.36,WUHU216DAVISVP2,2013-01-18 19:38:00,
2013-01-18 14:43:00,43.1,36.1,30.44,North,350,0.0,4.0,76,0.03,,,0.36,WUHU216DAVISVP2,2013-01-18 19:43:00,
2013-01-18 14:48:00,43.1,36.4,30.45,North,350,0.0,4.0,77,0.03,,,0.36,WUHU216DAVISVP2,2013-01-18 19:48:00,
2013-01-18 14:53:00,42.9,35.6,30.45,NNW,340,2.0,4.0,75,0.02,,,0.36,WUHU216DAVISVP2,2013-01-18 19:53:00,
2013-01-18 14:58:00,42.9,35.6,30.45,North,352,2.0,4.0,75,0.02,,,0.36,WUHU216DAVISVP2,2013-01-18 19:58:00,
2013-01-18 15:03:00,42.8,35.5,30.45,North,357,1.0,2.0,75,0.01,,,0.36,WUHU216DAVISVP2,2013-01-18 20:03:00,
2013-01-18 15:08:00,42.6,35.0,30.45,NNW,339,0.0,6.0,74,0.01,,,0.36,WUHU216DAVISVP2,2013-01-18 20:08:00,
2013-01-18 15:13:00,42.5,34.9,30.45,North,0,1.0,6.0,74,0.01,,,0.36,WUHU216DAVISVP2,2013-01-18 20:13:00,
2013-01-18 15:18:00,42.3,34.3,30.45,NW,309,2.0,7.0,73,0.01,,,0.36,WUHU216DAVISVP2,2013-01-18 20:18:00,
2013-01-18 15:23:00,42.5,34.2,30.45,North,353,0.0,7.0,72,0.01,,,0.36,WUHU216DAVISVP2,2013-01-18 20:23:00,
2013-01-18 15:28:00,42.2,33.2,30.45,East,96,2.0,4.0,70,0.02,,,0.37,WUHU216DAVISVP2,2013-01-18 20:28:00,
2013-01-18 15:33:00,42.2,33.9,30.45,East,96,0.0,4.0,72,0.01,,,0.37,WUHU216DAVISVP2,2013-01-18 20:33:00,
2013-01-18 15:38:00,42.1,33.8,30.45,North,4,1.0,4.0,72,0.01,,,0.37,WUHU216DAVISVP2,2013-01-18 20:38:00,
2013-01-18 15:43:00,41.9,33.6,30.45,NNW,344,0.0,4.0,72,0.01,,,0.37,WUHU216DAVISVP2,2013-01-18 20:43:00,
2013-01-18 15:48:00,41.9,33.9,30.45,NNW,342,0.0,2.0,73,0.01,,,0.37,WUHU216DAVISVP2,2013-01-18 20:48:00,
2013-01-18 15:53:00,42.1,33.8,30.45,North,0,2.0,7.0,72,0.01,,,0.37,WUHU216DAVISVP2,2013-01-18 20:53:00,
2013-01-18 15:58:00,42.1,33.5,30.45,NNW,332,0.0,7.0,71,0.01,,,0.37,WUHU216DAVISVP2,2013-01-18 20:58:00,
2013-01-18 16:03:00,42.2,33.9,30.45,North,349,0.0,6.0,72,0.01,,,0.37,WUHU216DAVISVP2,2013-01-18 21:03:00,
2013-01-18 16:08:00,41.9,33.3,30.45,North,349,0.0,6.0,71,0.01,,,0.37,WUHU216DAVISVP2,2013-01-18 21:08:00,
2013-01-18 16:13:00,41.8,33.2,30.45,NNW,346,1.0,6.0,71,0.01,,,0.37,WUHU216DAVISVP2,2013-01-18 21:13:00,
2013-01-18 16:18:00,41.6,33.3,30.46,NNW,344,0.0,1.0,72,0.01,,,0.37,WUHU216DAVISVP2,2013-01-18 21:18:00,
2013-01-18 16:23:00,41.3,33.0,30.46,NNW,344,0.0,1.0,72,0.01,,,0.37,WUHU216DAVISVP2,2013-01-18 21:23:00,
2013-01-18 16:28:00,41.2,32.9,30.46,NNW,344,0.0,1.0,72,0.00,,,0.37,WUHU216DAVISVP2,2013-01-18 21:28:00,
2013-01-18 16:33:00,40.9,32.6,30.46,NNW,340,0.0,2.0,72,0.00,,,0.37,WUHU216DAVISVP2,2013-01-18 21:33:00,
2013-01-18 16:38:00,40.6,32.7,30.46,NNW,340,0.0,2.0,73,0.00,,,0.37,WUHU216DAVISVP2,2013-01-18 21:38:00,
2013-01-18 16:43:00,40.5,32.6,30.46,NNW,340,0.0,1.0,73,0.00,,,0.37,WUHU216DAVISVP2,2013-01-18 21:43:00,
2013-01-18 16:48:00,40.3,32.7,30.47,NNW,340,0.0,0.0,74,0.00,,,0.37,WUHU216DAVISVP2,2013-01-18 21:48:00,
2013-01-18 16:53:00,40.2,32.6,30.47,NNW,340,0.0,1.0,74,0.00,,,0.37,WUHU216DAVISVP2,2013-01-18 21:53:00,
2013-01-18 16:58:00,39.8,32.6,30.47,NNW,340,0.0,1.0,75,0.00,,,0.37,WUHU216DAVISVP2,2013-01-18 21:58:00,
2013-01-18 17:03:00,39.5,32.3,30.47,NNW,340,0.0,1.0,75,0.00,,,0.37,WUHU216DAVISVP2,2013-01-18 22:03:00,
2013-01-18 17:08:00,39.2,32.0,30.47,NNW,340,0.0,1.0,75,0.00,,,0.37,WUHU216DAVISVP2,2013-01-18 22:08:00,
2013-01-18 17:13:00,38.9,31.7,30.47,NNW,340,0.0,0.0,75,0.00,,,0.37,WUHU216DAVISVP2,2013-01-18 22:13:00,
2013-01-18 17:18:00,38.6,31.7,30.48,NNW,340,0.0,0.0,76,0.00,,,0.37,WUHU216DAVISVP2,2013-01-18 22:18:00,
2013-01-18 17:23:00,38.3,31.4,30.48,NNW,340,0.0,0.0,76,0.00,,,0.37,WUHU216DAVISVP2,2013-01-18 22:23:00,
2013-01-18 17:28:00,38.0,31.5,30.48,NNW,340,0.0,0.0,77,0.00,,,0.37,WUHU216DAVISVP2,2013-01-18 22:28:00,
2013-01-18 17:33:00,37.6,31.1,30.49,NNW,340,0.0,0.0,77,0.00,,,0.37,WUHU216DAVISVP2,2013-01-18 22:33:00,
2013-01-18 17:38:00,37.3,30.8,30.49,NNW,340,0.0,0.0,77,0.00,,,0.37,WUHU216DAVISVP2,2013-01-18 22:38:00,
2013-01-18 17:43:00,37.0,30.8,30.49,NNW,340,0.0,0.0,78,0.00,,,0.37,WUHU216DAVISVP2,2013-01-18 22:43:00,
2013-01-18 17:48:00,36.8,30.9,30.49,NNW,340,0.0,0.0,79,0.00,,,0.37,WUHU216DAVISVP2,2013-01-18 22:48:00,
2013-01-18 17:53:00,36.3,30.4,30.49,NNW,340,0.0,0.0,79,0.00,,,0.37,WUHU216DAVISVP2,2013-01-18 22:53:00,
2013-01-18 17:58:00,36.0,30.1,30.49,NNW,340,0.0,0.0,79,0.00,,,0.37,WUHU216DAVISVP2,2013-01-18 22:58:00,
2013-01-18 18:03:00,35.8,29.9,30.50,NNW,340,0.0,0.0,79,0.00,,,0.37,WUHU216DAVISVP2,2013-01-18 23:03:00,
2013-01-18 18:08:00,35.5,29.7,30.50,NNW,340,0.0,0.0,79,0.00,,,0.37,WUHU216DAVISVP2,2013-01-18 23:08:00,
2013-01-18 18:13:00,35.0,29.5,30.50,NNW,340,0.0,0.0,80,0.00,,,0.37,WUHU216DAVISVP2,2013-01-18 23:13:00,
2013-01-18 18:18:00,34.7,29.2,30.50,NNW,340,0.0,0.0,80,0.00,,,0.37,WUHU216DAVISVP2,2013-01-18 23:18:00,
2013-01-18 18:23:00,34.6,29.4,30.50,NNW,340,0.0,0.0,81,0.00,,,0.37,WUHU216DAVISVP2,2013-01-18 23:23:00,
2013-01-18 18:28:00,34.3,29.1,30.50,NNW,340,0.0,0.0,81,0.00,,,0.37,WUHU216DAVISVP2,2013-01-18 23:28:00,
2013-01-18 18:33:00,34.0,29.1,30.51,NNW,340,0.0,0.0,82,0.00,,,0.37,WUHU216DAVISVP2,2013-01-18 23:33:00,
2013-01-18 18:38:00,33.8,28.9,30.51,NNW,340,0.0,0.0,82,0.00,,,0.37,WUHU216DAVISVP2,2013-01-18 23:38:00,
2013-01-18 18:43:00,33.5,28.9,30.51,NNW,340,0.0,0.0,83,0.00,,,0.37,WUHU216DAVISVP2,2013-01-18 23:43:00,
2013-01-18 18:48:00,33.2,28.6,30.51,NNW,340,0.0,0.0,83,0.00,,,0.37,WUHU216DAVISVP2,2013-01-18 23:48:00,
2013-01-18 18:53:00,33.1,28.5,30.51,NNW,340,0.0,0.0,83,0.00,,,0.37,WUHU216DAVISVP2,2013-01-18 23:53:00,
2013-01-18 18:58:00,32.9,28.3,30.51,NNW,340,0.0,0.0,83,0.00,,,0.37,WUHU216DAVISVP2,2013-01-18 23:58:00,
2013-01-18 19:03:00,32.7,28.1,30.51,NNW,340,0.0,0.0,83,0.00,,,0.37,WUHU216DAVISVP2,2013-01-19 00:03:00,
2013-01-18 19:08:00,32.5,28.2,30.51,NNW,340,0.0,0.0,84,0.00,,,0.37,WUHU216DAVISVP2,2013-01-19 00:08:00,
2013-01-18 19:13:00,32.4,28.1,30.51,NNW,340,0.0,0.0,84,0.00,,,0.37,WUHU216DAVISVP2,2013-01-19 00:13:00,
2013-01-18 19:18:00,32.2,27.9,30.52,NNW,340,0.0,0.0,84,0.00,,,0.37,WUHU216DAVISVP2,2013-01-19 00:18:00,
2013-01-18 19:23:00,32.2,27.9,30.52,NNW,340,0.0,0.0,84,0.00,,,0.37,WUHU216DAVISVP2,2013-01-19 00:23:00,
2013-01-18 19:28:00,32.1,28.1,30.52,NNW,340,0.0,0.0,85,0.00,,,0.37,WUHU216DAVISVP2,2013-01-19 00:28:00,
2013-01-18 19:33:00,32.1,28.1,30.53,NNW,340,0.0,0.0,85,0.00,,,0.37,WUHU216DAVISVP2,2013-01-19 00:33:00,
2013-01-18 19:38:00,31.9,27.9,30.53,NNW,340,0.0,0.0,85,0.00,,,0.37,WUHU216DAVISVP2,2013-01-19 00:38:00,
2013-01-18 19:43:00,31.9,27.9,30.53,NNW,340,0.0,0.0,85,0.00,,,0.37,WUHU216DAVISVP2,2013-01-19 00:43:00,
2013-01-18 19:48:00,31.9,27.9,30.51,NNW,340,0.0,0.0,85,0.00,,,0.37,WUHU216DAVISVP2,2013-01-19 00:48:00,
2013-01-18 19:53:00,31.8,27.8,30.51,NNW,340,0.0,0.0,85,0.00,,,0.37,WUHU216DAVISVP2,2013-01-19 00:53:00,
2013-01-18 19:58:00,31.8,27.8,30.51,NNW,340,0.0,0.0,85,0.00,,,0.37,WUHU216DAVISVP2,2013-01-19 00:58:00,
2013-01-18 20:03:00,31.8,28.1,30.52,NNW,340,0.0,0.0,86,0.00,,,0.37,WUHU216DAVISVP2,2013-01-19 01:03:00,
2013-01-18 20:08:00,31.8,28.1,30.52,NNW,340,0.0,0.0,86,0.00,,,0.37,WUHU216DAVISVP2,2013-01-19 01:08:00,
2013-01-18 20:13:00,31.6,27.9,30.52,NNW,340,0.0,0.0,86,0.00,,,0.37,WUHU216DAVISVP2,2013-01-19 01:13:00,
2013-01-18 20:18:00,31.6,27.9,30.52,NNW,340,0.0,0.0,86,0.00,,,0.37,WUHU216DAVISVP2,2013-01-19 01:18:00,
2013-01-18 20:23:00,31.5,27.8,30.52,NNW,340,0.0,0.0,86,0.00,,,0.37,WUHU216DAVISVP2,2013-01-19 01:23:00,
2013-01-18 20:28:00,31.5,27.8,30.52,NNW,340,0.0,0.0,86,0.00,,,0.37,WUHU216DAVISVP2,2013-01-19 01:28:00,
2013-01-18 20:33:00,31.5,27.8,30.52,NNW,340,0.0,0.0,86,0.00,,,0.37,WUHU216DAVISVP2,2013-01-19 01:33:00,
2013-01-18 20:38:00,31.3,27.6,30.52,NNW,340,0.0,0.0,86,0.00,,,0.37,WUHU216DAVISVP2,2013-01-19 01:38:00,
2013-01-18 20:43:00,31.3,27.8,30.52,NNW,340,0.0,0.0,87,0.00,,,0.37,WUHU216DAVISVP2,2013-01-19 01:43:00,
2013-01-18 20:48:00,31.2,27.5,30.52,NNW,340,0.0,0.0,86,0.00,,,0.37,WUHU216DAVISVP2,2013-01-19 01:48:00,
2013-01-18 20:53:00,31.0,27.5,30.52,NNW,340,0.0,0.0,87,0.00,,,0.37,WUHU216DAVISVP2,2013-01-19 01:53:00,
2013-01-18 20:58:00,31.0,27.5,30.52,NNW,340,0.0,0.0,87,0.00,,,0.37,WUHU216DAVISVP2,2013-01-19 01:58:00,
2013-01-18 21:03:00,30.9,27.5,30.52,NNW,340,0.0,0.0,87,0.00,,,0.37,WUHU216DAVISVP2,2013-01-19 02:03:00,
2013-01-18 21:08:00,30.9,27.5,30.52,NNW,340,0.0,0.0,87,0.00,,,0.37,WUHU216DAVISVP2,2013-01-19 02:08:00,
2013-01-18 21:13:00,30.7,27.3,30.52,NNW,340,0.0,0.0,87,0.00,,,0.37,WUHU216DAVISVP2,2013-01-19 02:13:00,
2013-01-18 21:18:00,30.7,27.3,30.52,NNW,340,0.0,0.0,87,0.00,,,0.37,WUHU216DAVISVP2,2013-01-19 02:18:00,
2013-01-18 21:23:00,30.6,27.2,30.52,NNW,340,0.0,0.0,87,0.00,,,0.37,WUHU216DAVISVP2,2013-01-19 02:23:00,
2013-01-18 21:28:00,30.6,27.2,30.52,NNW,340,0.0,0.0,87,0.00,,,0.37,WUHU216DAVISVP2,2013-01-19 02:28:00,
2013-01-18 21:33:00,30.6,27.2,30.52,NNW,340,0.0,0.0,87,0.00,,,0.37,WUHU216DAVISVP2,2013-01-19 02:33:00,
2013-01-18 21:38:00,30.6,27.2,30.52,NNW,340,0.0,0.0,87,0.00,,,0.37,WUHU216DAVISVP2,2013-01-19 02:38:00,
2013-01-18 21:43:00,30.4,27.0,30.52,NNW,340,0.0,0.0,87,0.00,,,0.37,WUHU216DAVISVP2,2013-01-19 02:43:00,
2013-01-18 21:48:00,30.4,27.0,30.52,NNW,340,0.0,0.0,87,0.00,,,0.37,WUHU216DAVISVP2,2013-01-19 02:48:00,
2013-01-18 21:53:00,30.4,27.0,30.52,NNW,340,0.0,0.0,87,0.00,,,0.37,WUHU216DAVISVP2,2013-01-19 02:53:00,
2013-01-18 21:58:00,30.3,26.9,30.52,NNW,340,0.0,0.0,87,0.00,,,0.37,WUHU216DAVISVP2,2013-01-19 02:58:00,
2013-01-18 22:03:00,30.3,27.1,30.52,NNW,340,0.0,0.0,88,0.00,,,0.37,WUHU216DAVISVP2,2013-01-19 03:03:00,
2013-01-18 22:08:00,30.3,27.1,30.52,NNW,340,0.0,0.0,88,0.00,,,0.37,WUHU216DAVISVP2,2013-01-19 03:08:00,
2013-01-18 22:13:00,30.1,26.9,30.52,NNW,340,0.0,0.0,88,0.00,,,0.37,WUHU216DAVISVP2,2013-01-19 03:13:00,
2013-01-18 22:18:00,30.1,26.9,30.51,NNW,340,0.0,0.0,88,0.00,,,0.37,WUHU216DAVISVP2,2013-01-19 03:18:00,
2013-01-18 22:23:00,30.1,26.9,30.51,NNW,340,0.0,0.0,88,0.00,,,0.37,WUHU216DAVISVP2,2013-01-19 03:23:00,
2013-01-18 22:28:00,30.1,26.9,30.51,NNW,340,0.0,0.0,88,0.00,,,0.37,WUHU216DAVISVP2,2013-01-19 03:28:00,
2013-01-18 22:33:00,30.1,26.9,30.51,NNW,340,0.0,0.0,88,0.00,,,0.37,WUHU216DAVISVP2,2013-01-19 03:33:00,
2013-01-18 22:38:00,30.1,26.9,30.51,NNW,340,0.0,0.0,88,0.00,,,0.37,WUHU216DAVISVP2,2013-01-19 03:38:00,
2013-01-18 22:43:00,30.1,26.9,30.51,NNW,340,0.0,0.0,88,0.00,,,0.37,WUHU216DAVISVP2,2013-01-19 03:43:00,
2013-01-18 22:48:00,30.3,27.1,30.50,NNW,340,0.0,0.0,88,0.00,,,0.37,WUHU216DAVISVP2,2013-01-19 03:48:00,
2013-01-18 23:02:00,30.4,27.2,30.50,NNW,340,0.0,0.0,88,0.00,,,0.37,WUHU216DAVISVP2,2013-01-19 04:02:00,
2013-01-18 23:07:00,30.3,27.2,30.50,NNW,340,0.0,0.0,88,0.00,,,0.37,WUHU216DAVISVP2,2013-01-19 04:07:00,
2013-01-18 23:12:00,30.3,27.1,30.50,NNW,340,0.0,0.0,88,0.00,,,0.37,WUHU216DAVISVP2,2013-01-19 04:12:00,
2013-01-18 23:17:00,30.3,27.1,30.50,NNW,340,0.0,0.0,88,0.00,,,0.37,WUHU216DAVISVP2,2013-01-19 04:17:00,
2013-01-18 23:22:00,30.4,27.2,30.50,NNW,340,0.0,0.0,88,0.00,,,0.37,WUHU216DAVISVP2,2013-01-19 04:22:00,
2013-01-18 23:27:00,30.3,27.1,30.50,NNW,340,0.0,0.0,88,0.00,,,0.37,WUHU216DAVISVP2,2013-01-19 04:27:00,
2013-01-18 23:32:00,30.1,26.9,30.49,NNW,340,0.0,0.0,88,0.00,,,0.37,WUHU216DAVISVP2,2013-01-19 04:32:00,
2013-01-18 23:37:00,30.1,26.9,30.49,NNW,340,0.0,0.0,88,0.00,,,0.37,WUHU216DAVISVP2,2013-01-19 04:37:00,
2013-01-18 23:42:00,29.8,26.6,30.49,NNW,340,0.0,0.0,88,0.00,,,0.37,WUHU216DAVISVP2,2013-01-19 04:42:00,
2013-01-18 23:47:00,30.0,26.8,30.49,NNW,340,0.0,0.0,88,0.00,,,0.37,WUHU216DAVISVP2,2013-01-19 04:47:00,
2013-01-18 23:52:00,29.8,26.7,30.49,NNW,340,0.0,0.0,88,0.00,,,0.37,WUHU216DAVISVP2,2013-01-19 04:52:00,
2013-01-18 23:57:00,30.0,27.1,30.49,NNW,340,0.0,0.0,89,0.00,,,0.37,WUHU216DAVISVP2,2013-01-19 04:57:00,